Location: Amsterdam
(30.7274°N, 84.4357°W)
Time: 21:13:36
(UTC+00:00)

Explorer 11/Cluster Stage 4 - Pass Details

Date: 25 February 2026
Orbit: 463 x 1176 km, 28.8° (Epoch: 5 March)

Event Time Altitude Azimuth Distance (km) Brightness Sun altitude
Rises 17:01:05 0° 265° (W) 3,539 9.8 48.6°
Reaches altitude 10° 17:03:57 10° 264° (W) 2,475 9.2 48.8°
Maximum altitude 17:09:46 73° 180° (S) 757 8.0 49.2°
Drops below altitude 10° 17:14:26 10° 97° (E) 1,998 9.0 49.4°
Sets 17:16:33 0° 95° (E) 2,810 9.6 49.5°
